DW2465 Weather Reports


time (UTC)temp
C
wind
direction
speed
KPH
gust
KPH
rain 1hr
cm
rain 24hr
cm
rain mn
cm
humidity
%
barometer
mb
20260506033032 4 299 0.0 0.0 0.00 0.00 0.00 56 1013.4
20260506031529 4 279 0.0 0.0 0.00 0.00 0.00 55 1013.3
20260506030026 5 309 0.0 0.0 0.00 0.00 0.00 54 1013.2
20260506024522 5 294 0.0 0.0 0.00 0.00 0.00 53 1012.9
20260506023020 5 287 0.0 0.0 0.00 0.00 0.00 52 1012.7
20260506021519 5 315 0.0 0.0 0.00 0.00 0.00 51 1012.6
20260506020017 6 274 0.0 0.0 0.00 0.00 0.00 50 1012.3
20260506014517 6 281 0.0 0.0 0.00 0.00 0.00 48 1012.1
20260506013012 6 318 0.0 0.0 0.00 0.00 0.00 47 1011.9
20260506011514 6 293 0.0 0.0 0.00 0.00 0.00 45 1011.6
20260506010012 7 267 0.0 0.0 0.00 0.00 0.00 44 1011.7
20260506004510 7 321 0.0 0.0 0.00 0.00 0.00 44 1011.5
20260506003005 7 333 0.0 0.0 0.00 0.00 0.00 43 1011.3
20260506001504 8 267 0.0 0.0 0.00 0.00 0.00 42 1011.1
20260506000002 8 275 0.0 0.0 0.00 0.00 0.00 42 1011.0
20260505234553 8 326 0.0 0.0 0.00 0.00 0.00 41 1010.9
20260505233036 8 223 0.0 0.0 0.00 0.00 0.00 40 1010.6
20260505231532 8 254 0.0 0.0 0.00 0.00 0.00 40 1010.5
20260505230037 8 244 0.0 0.0 0.00 0.00 0.00 41 1010.4
20260505224528 8 269 0.0 0.0 0.00 0.00 0.00 41 1010.5
20260505223027 8 272 0.0 0.0 0.00 0.00 0.00 41 1010.6
20260505221525 8 279 0.0 0.0 0.00 0.00 0.00 42 1010.4
20260505220033 8 298 0.0 0.0 0.00 0.00 0.00 42 1010.5
20260505214529 8 244 0.0 0.0 0.00 0.00 0.00 42 1010.7
20260505213025 8 322 0.0 0.0 0.00 0.00 0.00 41 1010.9
20260505211519 8 351 0.0 0.0 0.00 0.00 0.00 41 1010.6
20260505210019 8 269 0.0 0.0 0.00 0.00 0.00 40 1010.6
20260505204518 8 294 0.0 0.0 0.00 0.00 0.00 41 1010.7
20260505203017 8 321 0.0 0.0 0.00 0.00 0.00 42 1010.7
20260505201518 8 269 0.0 0.0 0.00 0.00 0.00 41 1010.7
20260505200013 8 235 0.0 0.0 0.00 0.00 0.00 42 1010.6
20260505194527 8 275 0.0 0.0 0.00 0.00 0.00 42 1010.6
20260505193029 8 254 0.0 0.0 0.00 0.00 0.00 41 1010.6
20260505191509 8 287 0.0 0.0 0.00 0.00 0.00 41 1010.7
20260505190038 8 295 0.0 0.0 0.00 0.00 0.00 42 1010.8
20260505184536 8 276 0.0 0.0 0.00 0.00 0.00 42 1010.6
20260505183032 7 259 0.0 0.0 0.00 0.00 0.00 42 1010.9
20260505181531 8 279 0.0 0.0 0.00 0.00 0.00 42 1010.9
20260505180042 7 245 0.0 0.0 0.00 0.00 0.00 44 1010.8
20260505174537 7 266 0.0 0.0 0.00 0.00 0.00 44 1010.8
20260505173057 7 290 0.0 0.0 0.00 0.00 0.00 44 1010.8
20260505171557 7 290 0.0 0.0 0.00 0.00 0.00 43 1010.9
20260505170129 7 286 0.0 0.0 0.00 0.00 0.00 42 1010.9
20260505164553 7 252 0.0 0.0 0.00 0.00 0.00 43 1010.9
20260505163050 7 311 0.0 0.0 0.00 0.00 0.00 42 1010.9
20260505161557 7 299 0.0 0.0 0.00 0.00 0.00 45 1010.8
20260505153054 6 288 0.0 0.0 0.00 0.00 0.00 46 1010.9
20260505151548 6 282 0.0 0.0 0.00 0.00 0.00 47 1010.8
20260505124553 3 360 0.0 0.0 0.00 0.00 0.00 57 1009.4
20260505123107 3 329 0.0 0.0 0.00 0.00 0.00 59 1009.4
20260505121546 3 346 0.0 0.0 0.00 0.00 0.00 63 1009.0
20260505120046 2 360 0.0 0.0 0.00 0.00 0.00 66 1008.7
20260505114604 2 281 0.0 0.0 0.00 0.00 0.00 68 1008.5
20260505113040 2 309 0.0 0.0 0.00 0.00 0.00 69 1008.2
20260505111553 2 313 0.0 0.0 0.00 0.00 0.00 69 1008.2
20260505101533 2 300 0.0 0.0 0.00 0.00 0.00 69 1007.9
20260505100030 2 311 0.0 0.0 0.00 0.00 0.00 68 1007.6
20260505094525 3 288 0.0 0.0 0.00 0.00 0.00 66 1007.6
20260505093053 3 292 0.0 0.0 0.00 0.00 0.00 66 1007.6
20260505091552 3 279 0.0 0.0 0.00 0.00 0.00 65 1007.3
20260505090054 3 299 0.0 0.0 0.00 0.00 0.00 64 1007.4
20260505084547 3 258 0.0 0.0 0.00 0.00 0.00 64 1007.2
20260505083058 3 277 0.0 0.0 0.00 0.00 0.00 63 1006.9
20260505081548 3 300 0.0 0.0 0.00 0.00 0.00 61 1006.7
20260505080041 3 281 0.0 0.0 0.00 0.00 0.00 61 1006.6
20260505074543 3 305 0.0 0.0 0.00 0.00 0.00 63 1006.6
20260505073036 3 284 0.0 0.0 0.00 0.00 0.00 63 1006.6
20260505071538 4 248 0.0 0.0 0.00 0.00 0.00 62 1006.6
20260505070005 4 281 0.0 0.0 0.00 0.00 0.00 60 1006.5
20260505064502 4 298 0.0 0.0 0.00 0.00 0.00 59 1006.6
20260505063100 4 288 0.0 0.0 0.00 0.00 0.00 59 1006.5
20260505061537 4 292 0.0 0.0 0.00 0.00 0.00 60 1006.6
20260505060029 5 276 0.0 0.0 0.00 0.00 0.00 59 1006.4
20260505054602 5 278 0.0 0.0 0.00 0.00 0.00 58 1006.3
20260505053108 5 279 0.0 0.0 0.00 0.00 0.00 57 1006.2
20260505051519 5 238 0.0 0.0 0.00 0.00 0.00 56 1006.0
20260505041517 6 259 0.0 0.0 0.00 0.00 0.00 55 1005.8
20260505040012 6 264 0.0 0.0 0.00 0.00 0.00 54 1005.8
20260505034506 6 272 0.0 0.0 0.00 0.00 0.00 54 1005.8